Gulfport, MS

2:02 PM CST on February 14, 2016 (GMT -0600)
Gulfport-Biloxi Regional

Weather History for KGPT - September, 2013

Change the Weather History Date:

Friday, September 6, 2013

  Actual Average Record
Temperature  
Mean Temperature 82 °F -  
Max Temperature 91 °F 86 °F 96 °F (1951)
Min Temperature 75 °F 70 °F 54 °F (1953)
Cooling Degree Days 18    
Growing Degree Days 32 (Base 50)    
Moisture  
Dew Point 74 °F    
Average Humidity 77    
Maximum Humidity 91    
Minimum Humidity 54    
Precipitation  
Precipitation 0.00 in - - ()
Sea Level Pressure  
Sea Level Pressure 30.04 in    
Wind  
Wind Speed 2 mph (East)    
Max Wind Speed 10 mph    
Max Gust Speed -    
Visibility 9 miles    
Events      
Averages and records for this station are not official NWS values.
T = Trace of Precipitation, MM = Missing Value Source: NWS Daily Summary

Daily Weather History Graph

Daily Weather History Graph

Search for Another Location

Airport or City:

Trip Planner

Search our weather history database for the weather conditions in past years. The results will help you decide how hot, cold, wet, or windy it might be!

Date:

Astronomy

Sep. 06, 2013 Rise Set
Actual Time 6:35 AM CDT 7:12 PM CDT
Civil Twilight 6:11 AM CDT 7:36 PM CDT
Nautical Twilight 5:43 AM CDT 8:05 PM CDT
Astronomical Twilight 5:13 AM CDT 8:34 PM CDT
Moon 7:39 AM CDT (9/6) 7:47 PM CDT (9/6)
Length of Visible Light 13h 25m
Length of Day
12h 36m
New Moon, 2% of the Moon is Illuminated
Sep 6
New Moon
Sep 12
First Quarter
Sep 19
Full
Sep 26
Last Quarter
Oct 4
New

Hourly Weather History & Observations

Time (CDT) Temp. Heat Index Dew Point Humidity Pressure Visibility Wind Dir Wind Speed Gust Speed Precip Events Conditions
12:53 AM 77.0 °F - 73.0 °F 88% 30.06 in 10.0 mi Calm Calm - N/A   Clear
1:53 AM 77.0 °F - 73.0 °F 88% 30.05 in 10.0 mi Calm Calm - N/A   Clear
2:53 AM 75.9 °F - 73.0 °F 91% 30.04 in 10.0 mi NNW 3.5 mph - N/A   Clear
3:53 AM 77.0 °F - 73.0 °F 88% 30.04 in 10.0 mi Calm Calm - N/A   Clear
4:53 AM 75.9 °F - 73.0 °F 91% 30.05 in 10.0 mi Calm Calm - N/A   Clear
5:53 AM 75.0 °F - 72.0 °F 90% 30.06 in 10.0 mi Calm Calm - N/A   Clear
6:53 AM 75.9 °F - 73.0 °F 91% 30.07 in 10.0 mi Calm Calm - N/A   Clear
7:53 AM 79.0 °F - 73.9 °F 84% 30.09 in 10.0 mi North 4.6 mph - N/A   Clear
8:53 AM 82.9 °F 88.8 °F 73.0 °F 72% 30.09 in 10.0 mi NNE 5.8 mph - N/A   Clear
9:53 AM 87.1 °F 95.4 °F 73.9 °F 65% 30.10 in 10.0 mi NNE 6.9 mph - N/A   Clear
10:53 AM 89.1 °F 98.0 °F 73.9 °F 61% 30.10 in 10.0 mi East 5.8 mph - N/A   Mostly Cloudy
11:53 AM 90.0 °F 96.9 °F 72.0 °F 55% 30.09 in 10.0 mi Calm Calm - N/A   Clear
12:53 PM 90.0 °F 96.4 °F 71.1 °F 54% 30.07 in 10.0 mi SE 8.1 mph - N/A   Partly Cloudy
1:53 PM 90.0 °F 97.9 °F 73.0 °F 57% 30.05 in 10.0 mi SSE 10.4 mph - N/A   Unknown
2:53 PM 88.0 °F 94.7 °F 72.0 °F 59% 30.03 in 10.0 mi SSE 6.9 mph - 0.00 in   Scattered Clouds
3:53 PM 86.0 °F 93.8 °F 73.9 °F 67% 30.01 in 8.0 mi South 4.6 mph - N/A   Clear
4:53 PM 86.0 °F 93.8 °F 73.9 °F 67% 30.00 in 10.0 mi Calm Calm - N/A   Clear
5:53 PM 87.1 °F 96.3 °F 75.0 °F 67% 30.00 in 9.0 mi Calm Calm - N/A   Clear
6:53 PM 82.0 °F 90.2 °F 77.0 °F 85% 29.99 in 7.0 mi Calm Calm - N/A   Scattered Clouds
7:53 PM 81.0 °F 86.7 °F 75.0 °F 82% 30.00 in 7.0 mi Calm Calm - N/A   Clear
8:53 PM 80.1 °F 85.1 °F 75.0 °F 85% 30.01 in 6.0 mi Calm Calm - N/A   Haze
9:53 PM 79.0 °F - 75.0 °F 88% 30.02 in 10.0 mi Calm Calm - N/A   Clear
10:53 PM 78.1 °F - 73.9 °F 87% 30.02 in 5.0 mi Calm Calm - N/A   Clear
11:53 PM 78.1 °F - 73.9 °F 87% 30.01 in 6.0 mi Calm Calm - N/A   Clear